EHI
6 6 6 6 4 4 4 3 2 1 0 0 1 2 4 4 2 1 0 0 0 0 0 0 0 0 0 0 0 0 0 0 0 0 0 0 0 0
6 6 6 6 5 4 5 4 3 2 1 1 1 2 4 4 2 1 0 0 0 0 0 0 0 0 0 0 0 0 0 0 0 0 0 0 0 0
6 6 6 6 6 6 5 4 4 3 2 2 1 3 4 4 1 0 0 0 0 0 0 0 0 0 0 0 0 0 0 0 0 0 0 0 0 0
6 6 6 6 6 5 4 3 3 3 2 1 2 3 4 3 1 0 0 0 0 0 0 0 0 0 0 0 0 0 0 0 0 0 0 0 0 0
5 5 6 5 4 2 2 3 3 2 1 0 1 1 3 2 1 0 0 0 0 0 0 0 0 0 0 0 0 0 0 0 0 0 0 0 0 0
4 4 4 3 2 1 1 3 3 1 0 0 0 1 2 2 1 0 0 0 0 0 0 0 0 0 0 0 0 0 0 0 0 0 0 0 0 0
3 2 2 1 0 0 1 2 2 1 0 0 0 0 1 1 1 0 0 0 0 0 0 0 0 0 0 0 0 0 0 0 0 0 0 0 0 0
2 1 0 0 0 0 1 1 1 0 0 0 0 0 0 0 0 0 0 0 0 0 0 0 0 0 0 0 0 0 0 0 0 0 0 0 0 0
2 1 1 1 1 0 0 0 0 0 0 0 0 0 0 0 0 0 0 0 0 0 0 0 0 0 0 0 0 0 0 0 0 0 0 0 0 0
1 1 2 3 2 0 0 0 0 0 0 0 0 0 0 0 0 0 0 0 0 0 0 0 0 0 0 0 0 0 0 0 0 0 0 0 0 0
0 0 1 2 1 0 0 0 0 0 0 0 0 0 0 0 0 0 0 0 0 0 0 0 0 0 0 0 0 0 0 0 0 0 0 0 0 0
0 0 0 0 0 0 0 0 0 0 0 0 0 0 0 0 0 0 0 0 0 0 0 0 0 0 0 0 0 0 0 0 0 0 0 0 0 0
0 0 0 0 0 0 0 0 0 0 0 0 0 0 0 0 0 0 0 0 0 0 0 0 0 0 0 0 0 0 0 0 0 0 0 0 0 0
0 0 0 0 0 0 0 0 0 0 0 0 0 0 0 0 0 0 0 1 1 0 0 0 0 0 0 0 0 0 0 0 0 0 0 0 0 0
0 0 0 0 0 0 0 0 0 0 0 0 0 1 0 0 0 0 0 1 2 1 1 1 2 1 0 0 0 0 0 0 0 0 0 0 0 0
0 0 0 0 0 0 0 0 0 0 0 0 0 0 0 0 0 0 0 1 2 2 2 2 3 2 0 0 0 0 0 0 0 0 0 0 0 0
0 0 0 0 0 0 0 0 0 0 0 0 0 0 0 0 0 0 0 0 1 1 1 1 2 2 0 0 0 0 0 0 0 0 0 0 0 0
0 0 0 0 0 0 0 0 0 0 0 0 0 0 0 0 0 0 0 0 0 0 0 0 1 1 0 0 0 0 0 0 0 0 0 0 0 0
0 0 0 0 0 0 0 0 0 0 0 0 0 0 0 0 0 0 0 0 0 0 0 0 0 0 0 0 0 0 0 0 0 0 0 0 0 0
0 0 0 0 0 0 0 0 0 0 0 0 0 0 0 0 0 0 0 0 0 0 0 0 0 0 0 0 0 0 0 0 0 0 0 0 0 0
0 0 0 0 0 0 0 0 0 0 0 0 0 0 0 0 0 0 0 0 0 0 0 0 0 0 0 0 0 0 0 0 0 0 0 0 0 0
0 0 0 0 0 0 0 0 0 0 0 0 0 0 0 0 0 0 0 0 0 0 0 0 0 0 0 0 0 0 0 0 0 0 0 0 0 0
0 0 0 0 0 0 0 0 0 0 0 0 0 0 0 0 0 0 0 0 0 0 0 0 0 0 0 0 0 0 0 0 0 0 0 0 0 0
Wind_Speed
3 3 3 3 3 3 3 2 3 5 6 5 3 3 2 2 3 4 4 6 8 10 11 11 12 11 11 11 11 11 10 10 10 12 12 12 12 12
3 4 3 3 3 3 3 3 3 4 5 4 4 4 3 3 4 4 4 7 10 11 12 12 12 12 12 12 12 11 11 11 11 11 12 12 12 12
4 4 4 4 3 3 3 3 3 3 5 5 4 4 4 4 4 4 4 5 6 11 12 12 12 12 12 12 12 11 12 12 12 12 12 12 13 12
4 4 4 4 3 3 3 4 4 4 4 6 5 4 5 4 4 5 4 5 4 7 10 11 11 12 12 12 12 11 12 13 13 12 12 12 13 13
4 4 4 4 4 3 4 4 4 5 4 5 6 4 4 4 3 4 4 3 4 5 7 8 10 11 11 12 12 12 13 13 12 12 12 12 12 12
4 4 4 4 4 4 5 4 5 5 5 5 5 4 4 3 2 3 3 3 4 4 4 5 8 10 11 12 12 13 13 12 12 12 12 11 11 11
4 4 5 4 4 4 5 5 5 4 5 5 5 4 4 3 3 3 4 3 4 3 2 3 3 4 6 9 11 12 12 12 13 13 12 12 11 11
5 4 5 3 4 5 7 8 7 6 5 5 5 5 5 4 3 4 4 3 4 2 2 4 4 4 5 4 8 11 12 12 13 13 13 12 12 11
5 4 5 5 4 5 6 7 7 8 8 6 6 6 6 5 4 5 4 4 5 4 3 5 4 5 5 6 9 10 11 11 11 12 12 12 12 11
5 4 4 4 4 5 6 6 6 6 7 6 5 6 6 5 5 5 5 5 5 4 4 4 4 4 5 4 7 9 10 11 11 11 12 11 11 11
5 4 3 2 4 5 5 6 7 6 7 7 7 8 8 9 6 3 4 4 5 4 3 3 4 4 4 4 5 9 10 10 10 11 11 11 11 10
4 3 3 3 4 5 5 5 7 7 7 7 6 7 6 7 8 5 4 4 5 4 3 3 3 3 3 3 3 3 5 7 9 10 11 11 10 6
5 4 3 3 5 7 6 6 8 8 7 6 6 5 4 4 3 4 4 4 5 5 4 3 3 3 3 3 3 3 4 4 4 5 8 10 10 8
5 4 4 7 9 9 7 7 9 8 5 5 5 4 4 4 4 4 5 6 5 6 5 4 3 3 3 4 3 3 3 3 3 4 4 7 8 10
5 8 9 10 9 7 6 8 6 4 4 4 4 4 4 4 4 4 4 5 5 5 6 5 4 4 3 3 4 4 3 3 3 3 3 4 4 5
5 7 8 8 6 6 5 4 3 3 3 4 4 4 4 4 3 3 4 4 3 4 5 5 4 4 3 4 4 4 3 2 2 3 3 3 3 4
6 4 4 4 4 3 3 3 3 3 4 4 4 5 5 4 4 3 3 4 4 4 3 3 3 4 3 3 3 4 3 3 2 2 2 1 1 2
4 4 4 4 4 4 4 4 4 4 4 4 4 5 5 5 5 4 4 4 4 4 3 3 3 3 2 2 3 4 4 3 2 2 1 1 1 1
3 4 4 4 4 5 5 5 5 5 4 5 5 5 6 6 5 5 5 4 5 5 4 3 3 2 3 4 4 3 3 3 2 2 2 2 2 1
3 4 4 4 4 4 5 5 5 5 5 5 6 6 6 6 6 6 5 6 5 5 5 3 3 3 3 4 4 3 3 2 2 2 2 1 1 1
4 4 4 4 5 5 4 4 5 5 5 5 5 6 6 6 6 7 6 8 6 5 5 5 4 6 4 2 2 3 3 2 1 1 1 1 1 0
4 5 4 4 4 5 5 5 5 5 5 5 6 6 6 6 7 7 7 6 5 6 6 5 5 4 3 3 4 4 3 2 1 2 2 0 1 1
4 4 4 4 4 4 5 6 7 6 6 6 6 6 7 6 6 6 7 6 6 7 6 5 5 4 4 4 4 4 4 3 2 0 1 2 0 1
Wind_Direction
276 281 284 283 280 276 274 269 274 290 293 294 293 279 257 247 211 226 226 227 229 229 228 227 230 232 237 239 240 242 245 246 248 246 243 240 238 239
268 273 277 280 289 291 290 279 262 265 280 282 284 288 287 285 255 249 243 233 233 230 229 230 231 230 232 233 236 237 239 241 241 240 238 237 235 236
275 280 280 284 286 288 290 286 281 272 277 284 283 288 286 279 264 253 242 230 231 227 226 227 228 228 228 230 233 235 239 241 239 238 237 237 235 235
284 285 285 286 288 289 290 289 287 275 270 282 284 280 276 272 260 256 263 254 240 234 227 228 228 228 229 230 231 234 237 235 236 238 237 236 234 234
288 289 290 286 282 286 284 286 289 289 278 274 279 277 273 277 280 278 277 274 267 256 234 231 229 230 231 232 231 232 233 230 231 234 235 233 232 231
291 293 293 288 283 287 285 284 287 293 290 287 284 285 283 282 286 284 289 281 280 279 261 243 236 234 234 236 235 234 233 230 229 230 228 227 228 227
296 295 292 294 302 296 294 294 293 286 286 285 287 293 294 299 293 289 291 288 278 268 268 264 253 239 232 237 240 239 236 233 228 226 225 223 223 224
289 290 289 283 294 294 289 284 276 278 288 286 287 290 290 292 294 290 292 299 291 273 277 272 260 251 239 230 232 230 231 232 229 226 223 221 221 223
284 284 293 304 318 311 302 292 280 270 258 260 274 281 287 290 290 288 285 286 282 273 273 271 261 257 248 245 227 224 226 226 224 223 223 223 223 224
286 285 293 301 313 308 295 294 287 284 272 258 258 268 278 278 273 273 274 280 278 266 254 261 257 260 260 250 236 226 226 225 223 223 222 222 224 223
297 301 294 297 308 317 303 295 295 296 296 288 271 269 273 275 273 280 283 281 284 276 252 261 270 276 265 254 242 231 230 228 226 224 222 223 225 222
303 294 305 309 312 317 302 296 292 296 304 304 295 283 269 264 256 237 251 269 280 279 258 250 266 280 279 259 245 234 236 239 235 230 225 222 214 209
314 319 326 323 306 301 293 281 279 290 296 291 287 283 277 271 255 237 237 245 265 275 274 259 262 266 263 277 263 234 227 231 224 233 233 223 213 203
312 316 318 312 307 302 295 287 295 303 291 288 288 291 290 285 277 265 253 251 251 259 272 269 258 259 271 279 281 267 244 226 214 222 217 216 218 215
312 315 311 302 303 301 293 296 301 296 295 298 303 303 297 295 291 282 277 269 265 263 265 258 257 260 256 263 269 271 274 260 235 229 219 205 201 197
328 322 315 310 309 304 310 309 295 305 313 311 316 312 309 306 302 301 299 290 283 282 274 264 254 255 263 263 263 272 270 264 257 245 230 215 205 198
332 317 314 324 326 327 327 327 329 334 329 321 319 318 316 316 316 319 312 307 296 287 294 290 267 247 237 265 275 276 277 274 271 262 254 243 214 198
324 313 321 330 335 340 345 348 349 351 345 340 336 333 331 331 328 326 325 319 316 309 306 305 307 304 294 278 262 276 286 284 273 261 248 242 250 220
316 317 337 346 347 351 355 353 351 352 351 345 338 336 334 332 330 325 327 332 327 323 317 318 321 315 310 306 300 286 281 283 283 276 259 239 229 212
340 345 348 348 349 352 353 351 349 348 350 345 345 343 337 333 332 331 331 333 324 321 320 322 329 322 301 299 304 311 302 295 285 269 267 260 239 208
358 350 347 346 350 352 351 349 346 346 349 344 342 339 335 333 332 331 329 328 323 317 321 321 313 311 303 310 316 313 314 302 315 275 262 267 270 270
355 347 347 350 353 351 348 348 346 347 345 342 338 335 333 330 329 327 326 326 327 326 323 322 322 327 336 328 310 298 302 325 340 12 29 24 200 219
355 348 346 352 355 349 349 349 352 351 348 344 341 336 333 331 328 326 328 331 333 331 331 333 340 345 341 332 322 318 320 318 309 315 343 339 217 197